Temp
-25 -25 -24 -24 -24 -24 -24 -24 -24 -24 -24 -24 -24 -24 -24 -24 -24 -24 -24 -24 -24 -24 -24 -24 -24 -25 -25 -25 -25 -25 -25 -25 -25 -25 -25 -25 -25 -26 -26 -26 -26 -26 -26 -26 -26 -26 -26 -26 -26 -26 -26 -26 -26 -26 -26 -26 -26 -26 -26 -26 -26 -26 -26
-25 -25 -25 -25 -25 -25 -25 -25 -25 -25 -25 -24 -24 -24 -24 -24 -24 -24 -24 -24 -24 -24 -24 -24 -24 -25 -25 -25 -25 -25 -25 -26 -26 -26 -26 -26 -26 -26 -26 -26 -26 -26 -26 -26 -26 -26 -26 -26 -26 -26 -26 -26 -26 -26 -26 -26 -26 -26 -26 -26 -26 -26 -26
-25 -25 -25 -25 -25 -25 -25 -25 -25 -25 -25 -25 -25 -25 -25 -25 -25 -24 -24 -24 -24 -25 -25 -25 -25 -25 -25 -25 -25 -25 -26 -26 -26 -26 -26 -26 -26 -26 -26 -26 -26 -26 -26 -26 -27 -27 -27 -27 -27 -27 -27 -27 -27 -27 -26 -26 -26 -26 -26 -26 -26 -26 -27
-25 -25 -25 -25 -25 -25 -25 -25 -25 -25 -25 -25 -25 -25 -25 -25 -25 -25 -25 -25 -25 -25 -25 -25 -25 -25 -25 -25 -25 -25 -26 -26 -26 -26 -26 -26 -26 -26 -26 -27 -27 -27 -27 -27 -27 -27 -27 -27 -27 -27 -27 -27 -27 -27 -27 -27 -27 -27 -27 -27 -27 -27 -27
-25 -25 -25 -25 -25 -25 -25 -25 -25 -25 -25 -25 -25 -26 -26 -26 -26 -26 -26 -26 -26 -26 -26 -25 -25 -25 -26 -26 -26 -26 -26 -26 -27 -27 -27 -27 -27 -27 -27 -27 -27 -27 -27 -27 -27 -27 -27 -27 -27 -27 -27 -27 -27 -27 -27 -27 -27 -27 -27 -27 -27 -27 -27
-25 -25 -25 -25 -25 -25 -25 -25 -25 -25 -25 -26 -26 -26 -26 -26 -26 -26 -26 -26 -26 -26 -26 -26 -26 -26 -26 -26 -26 -26 -27 -27 -27 -27 -27 -27 -27 -27 -27 -27 -27 -27 -27 -27 -27 -27 -27 -27 -28 -28 -28 -28 -28 -28 -27 -27 -27 -27 -27 -27 -27 -27 -27
-25 -25 -25 -25 -25 -25 -25 -25 -25 -25 -26 -26 -26 -26 -26 -26 -26 -26 -26 -26 -26 -26 -26 -26 -26 -26 -26 -27 -27 -27 -27 -27 -27 -27 -27 -27 -27 -27 -27 -27 -27 -27 -27 -27 -27 -27 -27 -28 -28 -28 -28 -28 -28 -28 -28 -28 -28 -28 -28 -28 -28 -28 -28
-26 -26 -26 -26 -26 -26 -26 -26 -26 -26 -26 -26 -26 -26 -26 -26 -26 -26 -26 -26 -26 -26 -26 -26 -27 -27 -27 -27 -27 -27 -27 -27 -27 -27 -27 -27 -27 -27 -27 -27 -28 -28 -27 -27 -27 -27 -28 -28 -28 -28 -28 -28 -28 -28 -28 -28 -28 -28 -28 -28 -28 -28 -28
-26 -26 -26 -26 -26 -26 -26 -26 -26 -26 -26 -26 -26 -26 -26 -26 -26 -26 -26 -26 -26 -27 -27 -27 -27 -27 -27 -27 -27 -27 -27 -27 -27 -27 -27 -27 -28 -28 -28 -28 -28 -28 -28 -28 -28 -28 -28 -28 -28 -28 -28 -28 -28 -28 -28 -28 -28 -28 -28 -28 -28 -28 -29
-26 -26 -26 -26 -26 -26 -26 -26 -26 -26 -26 -26 -26 -26 -26 -26 -27 -27 -27 -27 -27 -27 -27 -27 -27 -27 -27 -27 -27 -27 -27 -27 -27 -27 -28 -28 -28 -28 -28 -28 -28 -28 -28 -28 -28 -28 -28 -28 -28 -28 -28 -28 -28 -28 -28 -28 -28 -28 -28 -29 -29 -29 -29
-27 -27 -27 -27 -27 -27 -27 -27 -27 -27 -27 -27 -27 -27 -27 -27 -27 -27 -27 -27 -27 -27 -27 -27 -27 -27 -27 -27 -27 -27 -27 -28 -28 -28 -28 -28 -28 -28 -28 -28 -28 -28 -28 -28 -28 -28 -28 -28 -28 -28 -29 -29 -29 -29 -29 -29 -29 -29 -29 -29 -29 -29 -29
-27 -27 -27 -27 -27 -27 -27 -27 -27 -27 -27 -27 -27 -27 -27 -27 -27 -27 -27 -27 -27 -27 -27 -27 -27 -27 -27 -27 -28 -28 -28 -28 -28 -28 -28 -28 -28 -28 -28 -28 -28 -29 -29 -29 -29 -29 -29 -29 -29 -29 -29 -29 -29 -29 -29 -29 -29 -29 -29 -29 -29 -29 -29
-27 -27 -27 -27 -27 -27 -28 -28 -28 -28 -28 -28 -28 -28 -28 -28 -27 -27 -27 -27 -27 -27 -27 -27 -27 -27 -28 -28 -28 -28 -28 -28 -28 -28 -28 -28 -28 -28 -29 -29 -29 -29 -29 -29 -29 -29 -29 -29 -29 -29 -29 -29 -29 -29 -29 -29 -29 -29 -29 -29 -29 -29 -29
-28 -28 -28 -28 -28 -28 -28 -28 -28 -28 -28 -28 -28 -28 -28 -28 -28 -28 -27 -27 -27 -28 -28 -28 -28 -28 -28 -28 -28 -28 -28 -28 -28 -28 -29 -29 -29 -29 -29 -29 -29 -29 -29 -29 -29 -29 -29 -29 -29 -29 -29 -29 -29 -29 -29 -29 -30 -30 -30 -29 -29 -30 -30
-28 -28 -28 -28 -28 -28 -28 -28 -28 -28 -28 -28 -28 -28 -28 -28 -28 -28 -28 -28 -28 -28 -28 -28 -28 -28 -28 -28 -28 -28 -28 -29 -29 -29 -29 -29 -29 -29 -29 -29 -29 -29 -29 -29 -29 -29 -29 -29 -29 -29 -29 -30 -30 -30 -30 -30 -30 -30 -30 -30 -30 -30 -30
-29 -29 -29 -29 -29 -29 -29 -29 -29 -29 -29 -29 -29 -29 -29 -29 -29 -28 -28 -28 -28 -28 -28 -28 -28 -28 -28 -28 -28 -29 -29 -29 -29 -29 -29 -29 -29 -29 -29 -29 -29 -29 -29 -29 -30 -30 -30 -30 -30 -30 -30 -30 -30 -30 -30 -30 -30 -30 -30 -30 -30 -30 -31
-29 -29 -29 -29 -29 -29 -29 -29 -29 -29 -29 -29 -29 -29 -29 -29 -29 -29 -29 -29 -29 -29 -29 -29 -29 -29 -29 -29 -29 -29 -29 -29 -30 -30 -30 -30 -30 -30 -30 -30 -30 -30 -30 -30 -30 -30 -30 -30 -30 -30 -30 -30 -30 -30 -30 -30 -30 -31 -31 -31 -31 -31 -32
-30 -30 -30 -30 -30 -30 -30 -30 -30 -30 -30 -30 -30 -30 -30 -30 -29 -29 -29 -29 -29 -29 -29 -29 -29 -29 -29 -29 -29 -30 -30 -30 -30 -30 -30 -30 -30 -30 -30 -30 -30 -30 -30 -30 -30 -30 -30 -30 -30 -30 -30 -30 -31 -31 -31 -31 -31 -31 -31 -31 -32 -32 -32
-30 -30 -30 -30 -30 -30 -30 -30 -30 -30 -30 -30 -30 -30 -30 -30 -30 -30 -30 -30 -30 -30 -30 -30 -30 -30 -30 -30 -30 -30 -30 -30 -30 -30 -30 -31 -31 -30 -30 -30 -31 -31 -31 -31 -30 -30 -30 -30 -30 -31 -31 -31 -31 -31 -31 -32 -32 -32 -32 -32 -33 -33 -33
-30 -30 -30 -30 -30 -30 -30 -30 -30 -30 -30 -30 -31 -31 -30 -30 -30 -30 -30 -30 -30 -30 -30 -30 -30 -30 -31 -31 -31 -31 -31 -31 -31 -31 -31 -31 -31 -31 -31 -31 -31 -31 -31 -31 -31 -31 -31 -31 -31 -31 -32 -32 -32 -32 -32 -33 -33 -33 -33 -33 -34 -34 -34
-31 -31 -31 -31 -31 -31 -31 -31 -31 -31 -31 -31 -31 -31 -31 -31 -31 -31 -31 -31 -31 -31 -31 -31 -31 -31 -31 -31 -31 -31 -31 -31 -31 -31 -31 -31 -31 -31 -31 -31 -31 -31 -31 -31 -31 -31 -31 -32 -32 -32 -32 -33 -33 -33 -33 -34 -34 -34 -34 -34 -34 -34 -34
-31 -31 -31 -31 -31 -32 -32 -32 -32 -31 -31 -32 -32 -32 -32 -32 -32 -31 -31 -31 -31 -31 -31 -31 -31 -31 -31 -31 -31 -31 -32 -32 -32 -32 -31 -31 -32 -32 -32 -32 -32 -32 -32 -32 -32 -32 -33 -33 -33 -33 -34 -34 -34 -34 -34 -34 -34 -34 -35 -35 -35 -35 -35
-32 -32 -32 -32 -32 -32 -32 -32 -32 -32 -32 -32 -32 -32 -32 -32 -32 -32 -32 -32 -32 -32 -32 -32 -32 -32 -32 -32 -32 -32 -32 -32 -32 -32 -32 -32 -32 -32 -32 -32 -33 -33 -33 -33 -33 -33 -34 -34 -34 -34 -34 -35 -35 -35 -35 -35 -35 -35 -35 -35 -35 -35 -35
-32 -32 -32 -32 -32 -32 -32 -32 -32 -32 -32 -32 -32 -32 -32 -32 -32 -32 -32 -32 -32 -32 -32 -32 -32 -32 -32 -32 -32 -33 -33 -33 -33 -33 -33 -33 -33 -33 -33 -34 -34 -34 -34 -34 -34 -34 -34 -35 -35 -35 -35 -35 -35 -35 -36 -36 -36 -36 -36 -36 -36 -35 -35
-33 -33 -33 -33 -33 -33 -33 -33 -33 -33 -33 -33 -33 -33 -33 -33 -33 -33 -33 -33 -33 -33 -33 -33 -33 -33 -33 -33 -33 -33 -34 -34 -34 -34 -34 -34 -34 -34 -34 -34 -35 -35 -35 -35 -35 -35 -35 -35 -35 -36 -36 -36 -36 -36 -36 -36 -36 -36 -36 -36 -36 -36 -36
-33 -33 -33 -33 -33 -33 -33 -33 -34 -34 -34 -34 -34 -34 -34 -34 -34 -34 -34 -34 -34 -34 -34 -34 -34 -34 -34 -34 -34 -34 -34 -34 -35 -35 -35 -35 -35 -35 -35 -35 -35 -35 -36 -36 -36 -36 -36 -36 -36 -36 -36 -36 -36 -36 -36 -37 -37 -37 -37 -37 -37 -37 -37
-34 -34 -34 -34 -34 -34 -34 -34 -34 -34 -34 -34 -34 -34 -34 -34 -34 -34 -34 -34 -34 -34 -34 -34 -34 -34 -34 -34 -35 -35 -35 -35 -35 -36 -36 -36 -36 -36 -36 -36 -36 -36 -36 -36 -36 -36 -36 -36 -36 -36 -36 -36 -37 -37 -37 -37 -37 -37 -37 -37 -37 -37 -37
-34 -34 -34 -34 -34 -34 -34 -34 -34 -34 -34 -34 -34 -34 -35 -35 -35 -35 -35 -35 -35 -35 -35 -35 -35 -35 -35 -35 -35 -35 -36 -36 -36 -36 -36 -37 -37 -37 -37 -37 -37 -37 -37 -37 -37 -37 -37 -37 -37 -37 -37 -37 -37 -37 -37 -38 -38 -38 -38 -38 -38 -38 -38
-35 -35 -35 -35 -35 -35 -35 -35 -35 -35 -35 -35 -35 -35 -35 -35 -36 -36 -35 -35 -35 -36 -36 -36 -36 -36 -36 -36 -36 -36 -36 -37 -37 -37 -37 -37 -37 -37 -37 -37 -37 -37 -38 -38 -38 -38 -38 -37 -37 -37 -38 -38 -38 -38 -38 -38 -38 -38 -38 -38 -38 -38 -39
-36 -36 -36 -36 -36 -36 -36 -36 -36 -36 -36 -36 -36 -36 -36 -36 -36 -37 -36 -36 -36 -36 -37 -37 -37 -37 -37 -37 -37 -37 -37 -37 -37 -38 -38 -38 -38 -38 -38 -38 -38 -38 -38 -39 -39 -39 -38 -38 -38 -39 -39 -39 -39 -39 -39 -39 -39 -39 -39 -39 -39 -39 -39
-36 -36 -36 -36 -36 -36 -36 -37 -37 -37 -37 -37 -37 -37 -37 -37 -37 -37 -37 -37 -37 -37 -37 -38 -38 -38 -38 -38 -38 -38 -38 -38 -38 -38 -38 -38 -38 -38 -39 -39 -39 -39 -39 -39 -39 -39 -39 -39 -39 -40 -40 -40 -40 -40 -40 -40 -40 -40 -40 -40 -40 -40 -40
-37 -37 -37 -37 -37 -37 -37 -37 -37 -37 -37 -37 -38 -38 -38 -38 -38 -38 -38 -38 -38 -38 -38 -38 -38 -38 -39 -39 -39 -39 -39 -39 -39 -39 -39 -39 -39 -39 -39 -39 -39 -40 -40 -40 -40 -40 -40 -40 -40 -40 -40 -40 -40 -40 -40 -40 -40 -40 -41 -41 -41 -41 -41
-38 -38 -38 -38 -38 -38 -37 -38 -38 -38 -38 -38 -38 -38 -38 -38 -39 -39 -39 -39 -39 -39 -39 -39 -39 -39 -39 -39 -40 -40 -40 -40 -40 -40 -40 -40 -40 -40 -40 -40 -40 -40 -40 -40 -40 -41 -41 -41 -41 -41 -41 -41 -41 -41 -41 -41 -41 -41 -41 -41 -41 -41 -41
-39 -38 -38 -38 -39 -38 -38 -38 -38 -38 -38 -39 -39 -39 -39 -39 -39 -40 -40 -40 -40 -40 -40 -40 -40 -40 -40 -40 -40 -40 -40 -40 -40 -40 -41 -41 -41 -41 -41 -41 -41 -41 -41 -41 -41 -41 -41 -41 -41 -41 -41 -41 -41 -41 -41 -41 -42 -42 -42 -42 -42 -42 -42
-39 -39 -39 -39 -39 -39 -39 -39 -39 -39 -39 -39 -39 -39 -39 -39 -40 -40 -40 -40 -40 -40 -41 -41 -41 -41 -41 -41 -41 -41 -41 -41 -41 -41 -41 -41 -41 -41 -41 -41 -41 -41 -41 -41 -41 -41 -41 -41 -41 -41 -42 -42 -42 -42 -42 -42 -42 -42 -42 -42 -42 -42 -43
-40 -40 -39 -39 -39 -39 -39 -39 -39 -39 -39 -39 -39 -39 -39 -40 -40 -40 -40 -41 -41 -41 -41 -41 -42 -42 -42 -42 -42 -42 -42 -42 -42 -42 -42 -42 -42 -42 -42 -42 -42 -42 -42 -42 -42 -42 -42 -42 -42 -42 -42 -42 -42 -42 -42 -42 -43 -43 -43 -43 -43 -43 -43
Height
5516 5516 5516 5516 5516 5516 5516 5515 5515 5514 5514 5515 5515 5515 5515 5515 5514 5515 5516 5515 5515 5514 5513 5513 5514 5513 5512 5510 5510 5510 5509 5508 5508 5507 5506 5506 5505 5504 5502 5501 5499 5500 5502 5501 5499 5498 5498 5497 5496 5495 5495 5494 5494 5494 5494 5493 5492 5491 5490 5489 5488 5487 5485
5509 5508 5508 5509 5509 5508 5508 5507 5507 5506 5506 5507 5507 5506 5506 5506 5505 5506 5506 5506 5506 5506 5504 5504 5505 5505 5503 5501 5501 5501 5500 5499 5498 5497 5497 5497 5496 5495 5494 5492 5490 5490 5491 5491 5489 5488 5487 5487 5486 5485 5485 5485 5484 5484 5484 5483 5482 5481 5481 5480 5479 5477 5476
5501 5500 5501 5501 5501 5500 5500 5499 5499 5498 5498 5498 5498 5498 5497 5497 5497 5497 5497 5497 5497 5496 5495 5495 5495 5495 5493 5491 5491 5492 5490 5489 5488 5487 5487 5487 5486 5486 5485 5483 5481 5480 5481 5482 5480 5478 5477 5477 5476 5475 5475 5475 5474 5473 5473 5472 5472 5471 5471 5470 5469 5467 5466
5492 5492 5492 5492 5492 5492 5492 5491 5490 5490 5490 5490 5489 5489 5489 5488 5488 5488 5488 5488 5488 5487 5485 5485 5486 5485 5483 5481 5481 5482 5480 5479 5478 5477 5477 5477 5476 5475 5475 5473 5471 5471 5471 5471 5471 5469 5467 5466 5465 5465 5465 5465 5464 5463 5462 5461 5461 5460 5460 5459 5458 5457 5456
5483 5483 5483 5483 5483 5483 5482 5482 5482 5481 5481 5481 5480 5480 5480 5480 5480 5480 5480 5479 5479 5478 5477 5476 5477 5476 5473 5472 5472 5472 5470 5469 5468 5467 5466 5466 5466 5465 5464 5463 5462 5461 5461 5461 5461 5460 5457 5455 5454 5454 5454 5454 5453 5452 5451 5450 5449 5449 5448 5447 5447 5446 5445
5473 5473 5473 5473 5473 5473 5473 5472 5472 5472 5472 5471 5471 5471 5471 5470 5470 5470 5470 5470 5470 5468 5467 5467 5467 5466 5464 5463 5463 5462 5460 5458 5457 5456 5456 5455 5455 5454 5452 5452 5452 5451 5450 5450 5450 5449 5448 5446 5445 5444 5442 5442 5441 5440 5440 5439 5438 5437 5436 5435 5435 5434 5433
5463 5463 5463 5463 5463 5462 5462 5462 5462 5461 5461 5461 5460 5460 5460 5460 5460 5460 5460 5460 5460 5459 5458 5458 5458 5456 5455 5454 5453 5452 5450 5448 5447 5445 5445 5444 5443 5442 5441 5441 5441 5440 5440 5439 5439 5438 5437 5437 5436 5434 5433 5430 5429 5428 5428 5427 5425 5425 5425 5423 5423 5423 5421
5454 5453 5453 5453 5453 5452 5452 5451 5451 5450 5450 5450 5450 5449 5449 5449 5449 5449 5449 5449 5449 5448 5448 5448 5447 5446 5445 5444 5443 5442 5439 5438 5436 5435 5434 5434 5432 5431 5430 5430 5429 5429 5429 5428 5428 5427 5427 5426 5425 5425 5423 5420 5418 5417 5416 5413 5412 5414 5415 5411 5410 5410 5409
5444 5444 5443 5443 5442 5442 5441 5441 5440 5439 5439 5439 5438 5438 5438 5438 5437 5437 5437 5437 5437 5437 5437 5437 5436 5436 5435 5433 5432 5431 5429 5427 5426 5424 5423 5423 5421 5420 5419 5418 5417 5417 5417 5417 5417 5416 5416 5415 5414 5414 5412 5410 5408 5406 5404 5402 5400 5402 5403 5400 5399 5399 5396
5434 5434 5433 5432 5432 5431 5430 5430 5429 5428 5428 5427 5427 5426 5426 5426 5426 5426 5425 5426 5426 5426 5425 5425 5424 5424 5423 5422 5421 5420 5418 5416 5415 5414 5412 5411 5410 5408 5407 5406 5406 5406 5406 5405 5405 5405 5404 5403 5404 5403 5400 5398 5396 5394 5392 5391 5389 5390 5390 5388 5388 5388 5385
5423 5423 5423 5422 5421 5420 5419 5418 5417 5417 5416 5415 5415 5414 5414 5414 5414 5414 5414 5414 5414 5414 5413 5412 5412 5412 5411 5410 5409 5408 5406 5404 5403 5402 5400 5399 5398 5397 5395 5394 5394 5394 5394 5394 5394 5394 5392 5392 5393 5391 5387 5386 5384 5382 5380 5380 5379 5378 5378 5376 5376 5376 5374
5412 5411 5411 5410 5410 5409 5408 5407 5405 5404 5404 5403 5403 5402 5401 5402 5402 5402 5402 5402 5401 5401 5401 5400 5399 5399 5399 5398 5397 5395 5394 5392 5391 5390 5388 5387 5386 5385 5384 5383 5382 5382 5382 5382 5382 5381 5381 5381 5380 5378 5375 5373 5371 5369 5368 5368 5367 5366 5365 5363 5363 5364 5362
5399 5399 5398 5398 5397 5397 5396 5394 5392 5391 5391 5391 5390 5389 5388 5389 5389 5389 5389 5389 5389 5388 5388 5387 5387 5386 5386 5386 5384 5382 5381 5380 5378 5377 5375 5374 5374 5373 5372 5372 5371 5371 5370 5370 5369 5368 5369 5368 5366 5364 5364 5361 5358 5357 5357 5355 5353 5352 5351 5351 5351 5351 5348
5387 5386 5385 5384 5384 5384 5383 5381 5379 5378 5378 5377 5376 5375 5374 5375 5375 5376 5377 5377 5376 5375 5375 5374 5373 5373 5374 5374 5371 5370 5368 5366 5365 5363 5362 5361 5362 5361 5360 5360 5360 5359 5358 5357 5356 5356 5356 5354 5352 5352 5351 5349 5346 5345 5344 5342 5340 5339 5338 5338 5338 5337 5335
5375 5374 5373 5372 5371 5371 5371 5369 5366 5365 5365 5364 5363 5362 5361 5361 5362 5362 5363 5364 5363 5362 5362 5361 5360 5360 5360 5360 5359 5357 5355 5353 5351 5349 5348 5348 5349 5349 5348 5347 5348 5347 5346 5345 5343 5343 5342 5341 5339 5339 5338 5336 5333 5332 5331 5328 5326 5326 5325 5325 5324 5323 5322
5362 5361 5361 5360 5358 5358 5359 5357 5354 5352 5352 5351 5350 5348 5348 5348 5348 5348 5349 5350 5350 5349 5348 5348 5347 5346 5347 5346 5346 5345 5342 5339 5337 5336 5335 5336 5336 5335 5335 5335 5335 5334 5332 5331 5330 5329 5328 5327 5326 5325 5324 5322 5320 5319 5317 5314 5313 5313 5311 5310 5310 5310 5309
5349 5348 5347 5347 5346 5344 5344 5344 5341 5338 5338 5337 5336 5334 5334 5334 5334 5334 5336 5336 5336 5335 5334 5335 5334 5333 5333 5332 5332 5331 5329 5326 5324 5323 5323 5323 5322 5321 5322 5322 5322 5320 5318 5317 5316 5315 5314 5314 5313 5312 5310 5308 5306 5305 5303 5300 5300 5300 5296 5295 5297 5297 5295
5335 5334 5332 5332 5331 5330 5330 5330 5328 5325 5323 5323 5321 5320 5320 5321 5320 5321 5322 5322 5322 5321 5321 5321 5321 5320 5319 5318 5318 5317 5315 5313 5311 5310 5309 5309 5308 5307 5308 5309 5308 5305 5303 5302 5301 5301 5301 5301 5300 5298 5296 5294 5292 5291 5289 5286 5286 5285 5281 5281 5284 5283 5281
5321 5321 5319 5317 5317 5316 5315 5316 5315 5312 5309 5308 5307 5306 5306 5307 5307 5308 5309 5308 5308 5308 5308 5308 5308 5307 5305 5304 5304 5303 5301 5299 5298 5297 5296 5295 5293 5294 5295 5296 5292 5290 5289 5287 5286 5287 5288 5287 5287 5284 5282 5280 5278 5276 5274 5272 5273 5272 5268 5268 5270 5269 5267
5307 5307 5306 5304 5302 5301 5301 5301 5301 5298 5295 5294 5293 5291 5291 5292 5293 5294 5294 5294 5294 5295 5295 5295 5294 5294 5292 5290 5289 5288 5286 5284 5284 5284 5283 5280 5280 5282 5282 5280 5277 5276 5275 5273 5272 5273 5274 5274 5273 5270 5268 5267 5265 5263 5260 5258 5258 5259 5257 5257 5257 5256 5255
5292 5292 5292 5291 5288 5287 5286 5286 5285 5284 5282 5280 5279 5277 5276 5277 5278 5279 5279 5280 5281 5282 5282 5282 5281 5280 5278 5276 5275 5274 5272 5269 5269 5269 5269 5266 5266 5268 5266 5263 5263 5263 5261 5259 5260 5260 5260 5259 5258 5256 5255 5253 5251 5249 5247 5244 5244 5245 5245 5245 5245 5245 5245
5278 5277 5278 5277 5274 5272 5272 5271 5269 5269 5268 5266 5264 5263 5261 5261 5263 5263 5262 5263 5266 5268 5268 5267 5266 5265 5263 5261 5260 5260 5258 5255 5253 5252 5253 5254 5252 5251 5249 5248 5249 5248 5246 5246 5246 5245 5245 5245 5244 5242 5241 5240 5238 5236 5233 5231 5232 5232 5232 5232 5233 5233 5233
5262 5262 5262 5262 5260 5258 5258 5256 5254 5254 5253 5251 5248 5248 5246 5245 5247 5247 5246 5247 5250 5252 5252 5251 5250 5250 5248 5245 5245 5245 5243 5241 5237 5234 5236 5239 5238 5235 5233 5233 5234 5234 5233 5232 5232 5231 5231 5231 5230 5228 5228 5227 5225 5223 5220 5219 5219 5220 5219 5220 5220 5220 5220
5247 5246 5246 5246 5245 5244 5242 5240 5239 5239 5237 5235 5233 5232 5230 5229 5230 5231 5230 5230 5232 5234 5235 5235 5234 5234 5233 5230 5230 5230 5228 5226 5223 5219 5218 5222 5223 5221 5219 5218 5220 5220 5219 5217 5217 5218 5218 5218 5216 5215 5215 5215 5213 5211 5210 5208 5207 5207 5207 5207 5207 5207 5207
5231 5230 5230 5230 5229 5229 5227 5225 5224 5223 5221 5219 5217 5215 5214 5213 5214 5215 5215 5215 5216 5216 5217 5218 5218 5218 5218 5216 5216 5215 5213 5212 5210 5206 5202 5205 5207 5207 5205 5205 5206 5206 5204 5204 5204 5205 5205 5205 5204 5203 5203 5203 5201 5200 5199 5197 5195 5194 5194 5194 5194 5195 5195
5214 5214 5213 5213 5213 5213 5213 5211 5208 5207 5206 5204 5202 5200 5198 5197 5198 5199 5199 5199 5200 5200 5201 5202 5202 5202 5202 5202 5201 5200 5199 5198 5197 5194 5190 5189 5190 5191 5191 5191 5191 5191 5191 5192 5192 5192 5192 5192 5192 5191 5191 5191 5190 5189 5188 5186 5183 5183 5183 5183 5183 5183 5183
5199 5198 5197 5197 5197 5198 5197 5195 5193 5191 5190 5189 5188 5186 5183 5181 5182 5183 5184 5184 5184 5184 5185 5185 5186 5186 5187 5187 5186 5185 5184 5183 5183 5182 5179 5176 5175 5175 5176 5176 5176 5177 5178 5179 5180 5180 5180 5180 5179 5180 5180 5179 5179 5179 5177 5174 5172 5172 5172 5172 5172 5172 5172
5183 5182 5180 5181 5182 5182 5180 5179 5178 5176 5175 5174 5173 5172 5170 5168 5166 5167 5168 5169 5169 5168 5168 5169 5170 5170 5171 5171 5171 5170 5169 5168 5167 5167 5166 5164 5162 5161 5161 5161 5161 5162 5164 5165 5165 5166 5166 5167 5167 5167 5168 5168 5168 5167 5165 5162 5161 5161 5161 5161 5161 5161 5161
5168 5167 5165 5165 5165 5164 5164 5165 5164 5161 5158 5157 5158 5158 5157 5155 5153 5151 5152 5153 5154 5153 5153 5153 5154 5155 5155 5155 5155 5154 5154 5153 5152 5151 5151 5151 5150 5149 5148 5148 5148 5149 5150 5150 5150 5151 5152 5153 5154 5154 5155 5155 5155 5154 5152 5151 5150 5150 5150 5150 5150 5150 5149
5152 5151 5150 5149 5150 5148 5148 5149 5149 5146 5142 5142 5143 5143 5143 5141 5140 5138 5137 5138 5139 5139 5139 5139 5139 5140 5140 5141 5141 5140 5140 5139 5138 5137 5137 5137 5137 5137 5136 5137 5137 5138 5137 5137 5137 5138 5140 5140 5141 5142 5142 5142 5142 5141 5140 5140 5140 5140 5140 5140 5140 5139 5138
5137 5136 5134 5135 5136 5135 5133 5133 5132 5131 5129 5129 5129 5128 5127 5127 5127 5127 5125 5123 5124 5125 5126 5125 5125 5126 5126 5126 5126 5127 5126 5125 5124 5124 5124 5124 5125 5125 5125 5126 5126 5126 5125 5125 5126 5127 5128 5128 5129 5129 5129 5129 5129 5129 5129 5129 5130 5130 5129 5129 5129 5128 5128
5122 5121 5120 5120 5120 5121 5120 5119 5117 5116 5116 5117 5115 5113 5112 5113 5114 5114 5113 5111 5111 5112 5112 5111 5111 5112 5112 5113 5113 5113 5113 5112 5112 5112 5112 5113 5114 5115 5115 5115 5114 5114 5114 5115 5116 5116 5116 5117 5117 5117 5117 5117 5117 5118 5118 5119 5119 5119 5119 5119 5119 5119 5118
5109 5108 5107 5106 5105 5105 5105 5105 5104 5103 5103 5102 5101 5100 5100 5101 5101 5100 5099 5099 5100 5100 5099 5098 5099 5099 5099 5100 5100 5100 5099 5100 5100 5101 5101 5102 5103 5104 5104 5103 5103 5103 5104 5105 5105 5105 5105 5106 5106 5106 5106 5107 5107 5107 5108 5109 5109 5109 5109 5109 5110 5110 5109
5097 5096 5095 5095 5093 5092 5091 5092 5091 5090 5090 5089 5088 5088 5088 5088 5088 5087 5086 5086 5088 5090 5088 5086 5087 5087 5087 5087 5088 5088 5088 5088 5089 5089 5090 5090 5091 5092 5092 5092 5093 5093 5094 5094 5094 5094 5095 5096 5096 5096 5097 5097 5097 5098 5098 5099 5100 5100 5100 5101 5101 5101 5101
5085 5084 5083 5083 5082 5080 5080 5080 5079 5078 5077 5076 5076 5077 5076 5076 5076 5076 5074 5074 5076 5078 5078 5077 5076 5076 5076 5076 5077 5077 5077 5077 5078 5079 5079 5079 5080 5081 5081 5082 5082 5083 5083 5083 5084 5085 5085 5086 5087 5087 5088 5088 5088 5089 5089 5090 5090 5091 5091 5092 5093 5093 5093
5076 5073 5072 5070 5069 5069 5069 5068 5067 5066 5065 5064 5064 5064 5065 5065 5064 5065 5064 5064 5064 5065 5067 5067 5067 5066 5065 5066 5066 5067 5067 5067 5068 5069 5069 5069 5070 5070 5071 5072 5072 5073 5073 5073 5074 5075 5075 5076 5077 5078 5079 5079 5080 5080 5081 5081 5082 5083 5084 5084 5085 5086 5086
Wind_Speed
51 52 53 54 55 56 57 58 59 60 60 60 61 61 62 62 63 63 63 64 64 65 65 65 65 65 66 67 67 67 68 69 69 69 69 70 70 70 70 71 72 71 70 71 73 73 74 74 74 75 74 74 73 72 71 71 71 71 72 72 72 73 74
54 55 56 57 58 58 59 60 60 61 61 62 62 63 64 64 64 64 65 65 66 66 67 67 67 67 68 69 69 69 70 70 71 71 71 71 71 71 72 72 73 73 72 72 73 74 75 75 76 76 76 75 75 74 73 73 73 73 73 73 74 74 75
57 58 59 59 60 60 61 61 62 62 63 63 64 64 65 65 66 66 67 67 67 68 69 69 69 70 70 71 71 71 72 72 72 73 73 72 72 72 73 74 74 75 74 74 75 76 76 77 77 77 77 76 76 75 75 75 75 75 75 75 76 77 78
60 61 61 61 62 62 62 63 63 64 64 64 65 65 65 66 67 67 68 68 69 70 71 71 71 72 73 73 73 73 74 74 74 74 74 74 74 74 74 75 76 76 76 76 76 77 78 78 79 78 78 77 77 77 77 77 77 76 77 77 78 80 81
62 63 63 63 64 64 64 65 65 65 66 66 66 66 66 67 68 68 69 69 70 71 72 72 73 73 74 75 75 75 75 75 75 76 76 76 76 76 76 76 77 77 77 77 77 78 79 79 79 79 78 78 78 78 78 78 78 78 79 80 81 82 83
65 65 66 66 66 66 67 67 67 68 68 68 68 68 68 69 69 70 70 71 71 72 73 74 74 74 75 75 75 75 76 77 77 78 78 78 78 78 78 78 78 78 79 79 79 79 79 79 79 79 79 79 79 79 79 79 80 81 82 83 84 85 85
67 67 68 68 68 69 69 69 70 70 70 70 70 70 71 71 72 72 72 73 73 74 75 75 75 75 75 75 76 76 77 78 79 79 79 79 79 79 79 79 79 80 80 80 80 80 80 79 79 79 79 80 80 81 81 81 82 83 84 85 86 86 87
68 68 69 70 70 71 71 72 72 72 72 73 73 73 73 74 74 74 75 75 75 75 75 75 75 75 76 76 77 78 79 80 80 80 80 80 80 80 80 81 81 81 81 81 81 80 80 79 79 79 80 81 82 82 82 84 85 85 85 87 88 88 89
69 70 71 71 72 73 73 73 74 74 74 75 75 76 76 76 77 77 77 77 76 76 76 76 76 77 77 78 79 79 80 80 80 80 80 80 81 81 82 82 82 82 82 82 81 81 80 80 80 80 80 81 82 83 85 86 87 87 87 88 89 90 91
71 72 73 73 73 74 74 75 75 76 76 77 77 78 78 79 79 79 78 78 78 78 78 78 79 79 79 79 80 80 80 80 81 81 81 82 82 83 83 83 83 83 82 82 81 81 80 80 80 80 81 83 84 85 86 87 88 89 89 90 90 90 91
74 74 74 74 75 75 76 76 77 78 79 79 80 80 80 80 80 80 80 80 80 80 80 81 80 80 80 80 80 80 80 81 81 81 82 83 83 83 83 84 83 83 82 82 81 80 81 81 81 82 83 85 86 87 88 89 90 90 91 91 91 91 92
76 76 77 77 77 78 78 79 80 80 81 81 81 82 82 82 82 82 82 82 82 82 82 82 82 82 81 81 81 81 81 81 82 82 83 83 83 83 83 83 83 82 82 82 81 82 82 82 83 84 85 86 88 89 90 90 91 92 92 92 93 93 93
78 78 79 79 80 80 81 81 82 82 82 82 83 83 84 84 85 85 85 85 84 84 84 84 84 83 83 82 82 82 82 82 83 83 84 84 83 83 83 83 83 82 83 83 83 83 84 84 85 86 87 88 90 91 91 92 93 93 94 94 94 94 95
80 81 81 82 82 83 83 83 84 84 85 85 86 87 88 88 88 87 87 86 86 86 86 85 85 85 84 83 84 84 84 84 84 84 84 84 84 83 84 84 84 84 84 84 85 86 86 87 88 88 89 90 91 92 93 93 94 95 95 95 95 95 95
83 83 84 84 84 85 85 85 87 88 88 89 90 90 90 90 89 89 88 87 87 87 87 86 86 86 85 85 85 84 84 84 84 84 84 84 84 84 84 85 85 85 86 87 88 88 89 89 90 90 91 92 93 93 94 95 95 95 96 96 95 95 95
85 85 86 86 87 87 88 89 90 91 91 91 91 92 91 91 90 90 89 88 88 88 88 87 87 86 86 85 85 85 85 85 85 85 85 85 85 85 86 86 86 87 88 89 90 90 91 91 92 93 93 93 94 94 95 96 96 96 96 96 95 95 94
88 89 89 89 90 91 91 91 92 93 92 92 92 92 92 91 91 90 90 89 88 88 88 87 87 87 86 86 85 85 85 85 86 86 86 86 87 87 88 88 89 90 91 91 92 93 93 93 94 94 94 95 95 95 95 96 96 96 96 96 95 94 92
91 92 92 93 92 93 92 92 92 92 93 92 93 93 92 91 91 90 89 88 88 88 87 87 86 86 86 86 85 85 86 86 87 87 88 88 89 90 90 90 91 92 93 94 94 95 95 95 95 95 95 95 95 95 96 96 95 95 95 95 93 91 90
93 93 93 93 93 93 93 92 92 92 92 92 92 92 92 91 91 90 89 88 87 87 87 86 86 86 87 87 87 87 88 89 89 90 90 91 92 92 92 92 93 94 95 95 96 96 96 95 95 94 94 94 94 95 95 95 93 93 92 91 89 87 86
92 92 92 92 92 92 92 92 91 91 92 92 92 92 92 91 91 90 89 89 88 88 88 88 88 88 88 89 89 89 90 92 92 92 93 94 94 94 94 94 95 95 96 96 97 96 96 95 94 94 94 93 93 93 93 92 91 89 88 86 84 83 81
92 92 91 91 92 92 92 92 91 91 92 92 92 92 92 92 92 91 91 91 90 90 89 89 90 90 90 91 91 92 93 94 94 94 94 95 95 95 95 96 96 96 96 97 97 96 95 94 93 93 92 91 90 90 89 88 87 86 85 83 81 79 78
92 92 92 91 92 92 92 92 92 92 92 93 93 93 93 93 93 93 93 93 92 91 91 91 91 91 92 93 93 93 94 94 95 96 96 95 96 96 96 97 96 96 96 96 95 94 93 92 91 90 88 87 86 86 86 85 84 83 82 81 79 78 77
93 93 93 93 93 93 93 93 94 94 94 94 95 95 95 95 95 95 95 95 95 94 93 93 93 94 94 95 95 95 95 95 96 97 97 96 96 96 96 96 95 95 94 92 91 91 89 88 87 86 85 84 83 83 83 83 83 82 81 80 78 78 78
95 95 95 95 95 95 96 96 96 96 96 97 98 98 98 98 98 98 98 98 97 96 96 96 96 95 95 95 95 95 95 94 95 96 96 95 94 93 93 93 91 90 89 88 88 87 85 84 84 83 82 81 81 81 81 82 82 81 81 80 80 79 79
96 96 96 96 96 96 96 96 96 96 96 96 97 97 98 98 97 97 97 96 96 95 95 94 94 93 93 92 92 91 91 91 91 91 92 91 90 89 89 88 87 86 86 85 84 84 83 82 82 82 81 81 81 81 81 81 81 81 81 81 81 80 80
94 94 94 94 93 93 93 93 93 93 93 93 93 93 94 94 94 93 93 92 92 92 91 90 90 89 89 88 88 88 88 87 87 87 88 88 87 87 87 86 86 85 85 84 83 83 83 82 82 82 82 81 81 81 81 81 82 82 81 81 81 81 81
92 92 92 92 92 91 91 91 92 92 92 92 92 93 93 94 94 93 92 92 92 91 91 90 90 89 89 88 88 88 88 88 87 87 87 87 87 87 87 87 87 87 87 86 85 85 84 84 84 83 83 82 82 81 81 82 82 82 81 81 81 80 80
93 93 93 93 93 92 92 93 93 93 94 94 93 93 94 94 94 94 93 93 93 92 92 92 91 90 90 89 89 89 89 89 89 88 88 88 88 88 88 88 88 88 88 87 86 86 86 86 86 85 84 83 82 81 81 82 82 82 81 81 81 80 79
90 90 90 90 90 91 91 90 90 91 91 91 91 91 91 90 91 91 91 90 90 89 89 89 88 88 87 87 87 87 87 87 87 87 87 87 87 87 87 87 87 86 86 85 85 84 84 84 84 84 83 82 81 80 81 81 81 81 80 80 79 78 77
85 85 85 85 85 86 86 85 85 85 86 86 86 86 85 85 85 85 86 85 85 84 84 84 83 82 82 82 82 82 82 82 82 83 83 83 83 84 84 84 83 83 82 82 82 81 81 81 80 80 79 78 78 78 78 79 79 78 77 76 75 75 74
81 82 82 82 81 81 81 81 81 81 81 81 81 81 81 81 80 80 81 81 81 80 80 79 79 78 78 78 78 78 77 77 78 78 78 78 78 78 78 78 78 78 78 78 78 77 77 76 76 76 75 75 75 75 75 75 74 74 73 72 71 71 70
79 79 79 80 79 79 79 78 79 79 79 78 78 78 78 78 77 77 77 77 77 76 76 76 76 75 75 75 75 75 75 75 75 75 74 74 73 73 73 73 73 73 73 73 72 72 72 71 71 71 71 71 71 71 70 70 69 69 68 67 66 66 65
73 73 73 73 73 74 74 73 73 73 73 73 74 74 74 74 73 73 73 73 72 71 72 72 72 71 71 71 71 71 72 72 72 72 71 71 70 69 69 69 69 69 68 68 67 67 67 67 67 66 66 66 66 66 65 64 64 63 63 62 61 60 59
66 66 66 66 66 67 67 67 66 66 67 67 67 68 68 68 68 68 69 69 67 66 66 67 67 67 67 67 67 67 67 67 67 67 67 67 66 66 65 66 65 65 64 64 64 63 63 62 62 62 62 61 61 61 60 59 59 58 58 57 56 55 54
64 64 64 64 64 64 64 64 64 64 64 64 64 64 64 64 64 64 65 65 64 63 62 62 63 63 63 63 63 63 63 63 63 63 63 63 62 62 62 62 62 62 61 61 61 60 60 59 59 58 58 57 57 57 56 55 55 54 53 52 51 50 49
62 63 64 64 64 64 64 64 64 64 64 64 64 64 63 63 63 62 62 63 63 62 61 60 60 61 61 60 60 60 60 60 60 60 60 60 60 60 60 59 59 59 59 59 58 58 57 57 56 55 55 54 54 54 53 52 51 50 49 48 47 46 46
Wind_Direction
256 257 258 259 260 261 261 262 263 264 264 265 266 267 267 267 268 268 268 268 269 270 271 271 272 273 273 273 273 273 272 272 272 272 272 273 273 274 274 274 274 275 275 275 275 275 274 274 274 274 274 274 274 274 273 273 273 274 274 275 276 277 278
257 258 259 260 260 261 261 262 263 264 265 266 266 267 268 268 268 269 269 269 270 271 271 272 272 273 273 273 273 273 272 272 271 271 272 272 273 273 273 274 274 274 274 274 275 275 275 274 274 274 274 274 274 274 274 274 274 274 274 275 276 277 278
258 259 260 260 261 261 261 262 262 263 265 265 266 267 267 268 268 269 270 270 271 271 272 272 273 273 273 273 273 273 273 272 272 272 272 272 273 273 273 273 273 273 274 274 274 274 274 274 274 274 274 274 274 274 274 274 274 274 274 275 276 277 278
260 260 261 261 261 261 261 262 263 264 265 265 266 266 266 267 267 268 269 270 271 271 272 273 273 274 274 274 274 274 273 273 272 272 272 273 273 273 272 272 272 273 273 274 274 274 274 274 274 274 274 274 274 274 274 274 274 274 274 275 276 277 278
262 262 262 262 262 262 262 262 263 264 265 265 265 265 265 266 266 267 268 269 269 270 271 272 273 273 273 274 274 274 273 273 273 272 272 273 273 272 272 271 272 272 273 273 274 274 273 273 274 274 274 274 274 273 274 274 274 274 275 275 276 277 278
263 263 263 263 262 262 263 263 264 264 265 265 265 265 265 265 266 267 267 268 269 270 270 271 272 272 272 272 273 273 272 272 272 272 272 272 272 272 271 271 272 272 273 273 273 273 273 273 273 273 274 274 273 273 274 274 274 275 275 276 277 278 279
262 262 262 262 263 263 263 264 264 265 265 265 265 266 266 266 267 267 268 268 269 269 270 270 271 271 271 271 271 271 271 272 272 272 272 272 272 272 271 272 272 272 272 273 272 272 272 272 272 273 273 273 274 274 274 274 274 275 276 277 278 279 280
262 262 262 263 263 264 264 265 265 265 266 266 266 267 267 267 268 268 269 269 269 270 270 270 270 270 270 270 270 271 271 271 272 272 272 272 271 271 271 272 272 272 272 272 272 271 271 271 271 272 272 273 273 274 274 274 275 275 277 277 278 279 280
261 262 263 263 264 265 265 265 266 266 267 267 267 268 268 269 269 270 270 270 270 270 270 270 270 270 270 271 271 271 271 271 271 271 271 271 271 271 271 271 271 271 271 271 271 270 270 270 271 271 272 272 273 273 274 274 275 276 277 277 278 279 281
262 262 263 264 265 265 266 266 267 267 267 268 269 269 270 270 270 271 271 271 271 271 271 271 271 271 271 271 271 271 271 271 270 270 270 270 270 270 270 271 270 270 270 270 270 270 270 270 270 271 271 272 272 273 274 274 275 276 277 278 279 279 280
264 264 265 265 266 266 267 267 268 268 269 269 270 270 270 271 271 271 271 272 272 272 272 272 272 272 272 272 271 271 270 270 270 270 270 270 270 270 270 270 270 270 269 269 269 269 269 270 271 271 272 272 273 273 274 275 276 277 277 278 279 279 280
266 266 266 267 267 267 268 269 269 269 270 270 271 271 271 271 271 272 272 272 273 273 273 273 273 273 272 272 272 271 270 270 270 270 269 269 269 269 269 269 269 269 269 269 269 269 270 271 271 272 272 273 274 274 275 276 276 277 277 278 279 279 280
267 268 268 269 269 270 270 270 271 271 271 271 271 271 272 272 272 272 273 273 273 273 273 273 273 273 272 272 272 272 271 271 271 270 270 269 269 269 269 269 268 269 269 269 270 270 271 272 272 272 273 274 274 275 276 276 277 277 278 278 279 280 280
269 270 270 271 271 271 271 271 271 271 272 272 272 273 273 273 273 273 273 273 273 273 273 273 273 273 273 272 272 272 272 272 271 271 270 270 269 269 269 269 269 269 269 270 271 271 272 272 273 273 274 275 275 276 276 276 277 277 278 279 279 280 280
270 270 270 271 271 271 271 271 272 272 272 273 273 273 273 273 273 273 273 273 273 273 273 273 273 273 273 273 272 272 272 272 271 270 270 270 269 269 269 269 269 270 270 271 271 272 272 273 273 274 275 275 275 276 276 277 277 278 278 279 279 279 280
270 270 270 270 271 271 271 272 272 273 273 273 273 273 273 273 273 274 274 274 273 273 273 273 273 273 273 273 272 272 272 271 271 270 270 270 270 269 269 269 270 270 271 271 272 272 273 273 274 275 275 275 276 276 277 277 277 278 278 278 279 279 280
271 271 271 271 272 272 272 272 273 273 273 273 273 273 273 273 273 273 274 274 273 273 273 273 273 273 273 272 272 272 271 271 271 271 270 270 270 270 270 271 271 271 272 272 273 273 274 274 275 275 275 276 276 276 277 277 277 278 278 278 279 279 279
271 272 272 272 272 272 272 272 273 273 273 273 273 273 273 273 273 273 273 273 273 273 273 273 273 273 272 272 272 271 271 271 271 271 271 271 271 271 272 272 272 273 273 273 273 273 274 275 275 275 276 276 276 276 277 277 277 278 278 278 279 279 279
271 271 272 272 272 272 272 272 272 272 273 273 273 273 273 273 273 273 273 273 272 272 272 272 272 272 272 272 272 271 271 271 271 271 271 271 272 272 272 273 273 273 273 273 273 274 274 275 275 276 276 276 276 276 276 277 277 277 278 278 278 278 278
271 271 271 272 272 272 272 272 272 272 273 273 273 273 273 273 273 272 272 272 272 272 272 272 272 272 272 272 271 271 271 271 271 271 271 271 272 272 272 272 272 272 273 273 273 274 275 275 275 275 275 275 276 276 276 276 276 276 276 276 276 276 276
272 272 272 272 273 273 273 273 273 273 273 273 273 273 273 273 273 273 272 272 272 272 272 272 272 271 271 271 271 271 271 271 271 271 271 271 272 272 272 272 272 272 273 273 274 274 274 274 274 275 275 275 275 275 275 275 275 275 275 275 275 275 274
273 273 273 273 273 273 273 273 273 273 273 273 273 273 273 273 272 272 272 272 272 272 271 271 271 271 271 271 271 271 271 271 271 271 271 271 272 272 272 272 272 272 273 273 274 274 274 274 274 274 274 274 274 274 274 274 274 274 274 274 274 274 274
273 273 273 273 273 273 273 273 273 273 273 273 273 273 273 273 273 272 272 272 272 272 272 271 271 271 271 271 271 271 272 272 272 272 272 271 272 272 272 272 272 273 273 273 273 273 273 274 274 273 273 273 273 273 273 274 274 274 274 274 274 274 274
273 273 273 273 273 273 273 273 273 273 273 273 273 273 273 273 273 273 273 273 273 272 272 271 271 271 271 271 271 271 271 271 272 272 272 272 271 272 272 272 272 272 272 272 272 272 272 272 272 272 272 272 272 272 273 273 274 274 274 274 274 275 275
274 274 273 273 273 273 273 273 273 273 273 273 273 273 273 272 272 272 272 272 272 272 272 271 271 271 271 271 271 271 271 271 271 271 272 272 272 271 271 271 271 271 271 271 271 271 271 271 271 271 271 272 272 272 273 273 273 274 274 275 275 275 276
274 274 274 274 273 273 273 273 273 273 273 273 273 273 273 273 273 272 272 272 272 272 272 271 271 271 271 270 270 270 270 270 270 270 270 271 271 270 270 270 270 270 269 269 270 270 270 270 270 270 270 271 271 271 272 272 273 273 274 274 275 275 276
274 274 274 274 274 274 273 273 273 273 273 273 273 273 273 273 273 273 273 272 272 272 272 272 271 271 270 270 270 269 269 269 269 268 268 269 269 269 269 269 269 269 269 269 269 269 269 269 269 269 270 270 271 271 271 272 272 273 273 274 274 275 275
273 273 273 273 273 273 272 272 272 272 272 272 272 271 271 272 272 272 272 272 271 271 271 271 270 270 270 269 269 269 269 268 268 268 267 267 268 268 268 268 269 269 269 269 269 269 269 269 269 270 270 270 271 271 271 271 272 272 273 274 274 275 275
273 273 272 272 272 272 271 271 271 271 271 271 270 270 270 271 271 271 271 271 270 270 270 270 270 270 269 269 269 268 268 268 268 268 267 267 267 267 268 268 269 269 270 270 269 270 270 270 270 270 271 271 271 271 271 271 271 272 273 273 274 275 275
273 273 273 272 272 272 272 272 271 271 271 271 271 270 270 270 270 270 271 271 270 270 270 270 269 269 269 269 268 268 268 268 267 267 267 267 267 267 268 268 268 269 269 269 269 269 270 270 270 270 270 270 270 270 270 270 271 272 273 273 274 274 274
274 274 273 273 273 273 272 272 272 271 271 271 271 271 270 270 270 270 270 270 270 270 270 269 269 269 268 268 268 267 267 267 267 267 267 267 267 267 268 268 268 268 268 268 269 269 270 270 270 270 270 269 269 270 270 270 271 272 272 272 273 273 274
275 275 275 274 274 273 273 272 272 272 272 271 271 270 270 270 270 269 269 269 269 269 269 269 269 268 268 268 268 267 267 266 266 266 267 267 267 267 267 268 268 268 268 268 269 269 269 269 269 269 269 269 269 269 270 270 271 271 271 271 272 272 273
276 276 276 276 275 274 274 273 273 272 272 271 271 270 270 270 270 269 269 269 269 269 269 269 269 268 268 268 267 267 267 266 267 267 267 267 267 267 267 267 267 267 268 268 268 267 267 268 268 268 268 268 269 269 269 270 270 270 270 270 271 271 271
278 277 277 277 276 276 275 275 274 274 273 272 272 271 271 271 270 270 269 269 268 268 268 269 269 268 268 267 267 267 267 267 267 267 267 267 267 266 266 266 266 267 267 266 266 267 267 267 267 267 267 268 268 268 268 269 269 269 269 269 269 270 270
279 279 279 278 277 277 276 276 276 275 274 274 273 272 272 271 270 270 270 269 269 268 267 267 268 268 268 268 267 267 267 267 267 267 267 267 267 266 266 266 266 266 266 266 266 266 266 266 266 266 266 267 267 267 267 267 267 267 268 268 268 268 268
279 280 280 279 278 278 277 277 276 276 275 275 274 273 272 271 270 270 269 269 269 268 267 266 266 267 267 267 267 267 267 266 266 266 266 266 266 266 266 266 266 266 266 266 266 266 266 266 266 266 266 266 266 266 266 266 266 267 267 267 267 266 266